Flag for Germany Weather past 2 weeks in Stuhr, Lower Saxony, Germany

Now
61 °F

Sunny.


Feels Like: 61 °F
Forecast: 38 / 51 °F
Wind: 20 mph from Southwest

Location: Bremen Airport


UV Index: 3 (Moderate)

Visibility: 10 mi


Pressure: 30.01 "Hg

Humidity: 39%

Dew point: 36 °F

Location of StuhrLocation

Historic Weather in Stuhr

°F

Stuhr temperature yesterday

Maximum temperature yesterday: 57 °F (at 4:20 PM)
Minimum temperature yesterday: 28 °F (at 4:20 AM)
Average temperature yesterday: 45 °F

Past Weeks' High & Low Weather Summary

 TemperatureHumidityPressure
High68 °F (Apr 2, 3:20 PM)100% (Apr 3, 5:20 AM)30.48 "Hg (Apr 3, 5:20 AM)
Low28 °F (Apr 16, 4:20 AM)39% (Apr 16, 4:20 PM)29.62 "Hg (Apr 3, 5:20 PM)
Average50 °F79%29.99 "Hg
* Reported Apr 2 2:20 PM — Apr 17 2:20 PM, Stuhr, Weather by CustomWeather, © 2014

Note: Actual official high and low records may vary slightly from our data, if they occured in-between our weather recording intervals... More about our weather records

Advertising

Historic Weather Conditions — Data for Previous 24 hours

 ConditionsComfort  
Time TempWeatherWind HumidityBarometerVisibility
2:20 PM
Apr 17
61 °FSunny.15 mph45%30.04 "Hg10 mi
1:50 PM59 °FPassing clouds.16 mph42%30.07 "HgN/A
1:20 PM57 °FPassing clouds.14 mph41%30.09 "HgN/A
12:50 PM57 °FSunny.16 mph41%30.12 "Hg10 mi
12:20 PM57 °FSunny.15 mph44%30.12 "Hg10 mi
11:50 AM55 °FSunny.15 mph47%30.15 "Hg10 mi
11:20 AM55 °FSunny.14 mph47%30.15 "Hg10 mi
10:50 AM54 °FPassing clouds.13 mph51%30.18 "HgN/A
10:20 AM52 °FSunny.14 mph54%30.18 "Hg10 mi
9:20 AM48 °FPassing clouds.12 mph58%30.21 "HgN/A
8:20 AM45 °FSunny.10 mph66%30.21 "Hg10 mi
7:50 AM43 °FSunny.9 mph71%30.24 "Hg10 mi
7:20 AM41 °FClear.9 mph70%30.24 "Hg10 mi
6:50 AM41 °FClear.9 mph70%30.24 "Hg10 mi
6:20 AM39 °FClear.8 mph75%30.24 "Hg10 mi
5:50 AM39 °FClear.6 mph81%30.24 "Hg10 mi
5:20 AM37 °FClear.6 mph81%30.24 "Hg10 mi
4:50 AM37 °FClear.6 mph87%30.27 "Hg10 mi
4:20 AM39 °FClear.7 mph75%30.27 "Hg10 mi
3:50 AM39 °FClear.6 mph75%30.27 "Hg10 mi
3:20 AM39 °FClear.6 mph75%30.30 "Hg10 mi
2:50 AM41 °FClear.5 mph70%30.30 "Hg10 mi
2:20 AM39 °FClear.6 mph75%30.30 "Hg10 mi
1:50 AM41 °FClear.3 mph76%30.33 "Hg10 mi
1:20 AM43 °FClear.3 mph71%30.33 "Hg10 mi
12:50 AM41 °FClear.5 mph76%30.33 "Hg10 mi
12:20 AM43 °FClear.6 mph71%30.33 "Hg10 mi
11:50 PM
Apr 16
45 °FClear.7 mph66%30.33 "Hg10 mi
11:20 PM43 °FClear.3 mph76%30.36 "Hg10 mi
10:50 PM45 °FClear.3 mph76%30.36 "Hg10 mi
10:20 PM45 °FClear.3 mph76%30.36 "Hg10 mi
9:50 PM48 °FClear.5 mph62%30.36 "Hg10 mi
9:20 PM50 °FSunny.3 mph58%30.36 "Hg10 mi
8:50 PM52 °FSunny.3 mph50%30.36 "Hg10 mi
8:20 PM54 °FSunny.3 mph47%30.36 "Hg10 mi
7:50 PM54 °FSunny.5 mph47%30.36 "Hg10 mi
7:20 PM54 °FPassing clouds.6 mph47%30.36 "HgN/A
6:50 PM55 °FPassing clouds.6 mph44%30.39 "HgN/A
6:20 PM55 °FPassing clouds.3 mph44%30.39 "HgN/A
5:50 PM54 °FPassing clouds.6 mph54%30.39 "HgN/A
5:20 PM55 °FPassing clouds.3 mph44%30.39 "HgN/A
4:50 PM55 °FSunny.6 mph44%30.39 "Hg10 mi
4:20 PM57 °FPassing clouds.5 mph39%30.42 "HgN/A
3:50 PM55 °FSunny.2 mph44%30.42 "Hg10 mi
3:20 PM54 °FScattered clouds.3 mph47%30.42 "HgN/A
Weather by CustomWeather, © 2014

See weather overview